| time (UTC) | temp F | wind direction | speed MPH | gust MPH | rain 1hr in | rain 24hr in | rain mn in | humidity % | barometer mb |
| 20260901103636 | 60 | 77 | 0.0 | 3.0 | 0.00 | 0.00 | 0.00 | 81 | 1016.7 |
| 20260901102625 | 60 | 77 | 3.0 | 4.0 | 0.00 | 0.00 | 0.00 | 81 | 1016.6 |
| 20260901101635 | 61 | 77 | 2.0 | 5.0 | 0.00 | 0.00 | 0.00 | 82 | 1016.6 |
| 20260901100627 | 61 | 78 | 2.0 | 5.0 | 0.00 | 0.00 | 0.00 | 81 | 1016.6 |
| 20260901095626 | 61 | 86 | 1.0 | 3.0 | 0.00 | 0.00 | 0.00 | 81 | 1016.6 |
| 20260901094617 | 61 | 86 | 2.0 | 4.0 | 0.00 | 0.00 | 0.00 | 81 | 1016.5 |
| 20260901093627 | 61 | 86 | 3.0 | 7.0 | 0.00 | 0.00 | 0.00 | 81 | 1016.5 |
| 20260901092621 | 61 | 113 | 3.0 | 4.0 | 0.00 | 0.00 | 0.00 | 81 | 1016.7 |
| 20260901091630 | 61 | 166 | 0.0 | 0.0 | 0.00 | 0.00 | 0.00 | 80 | 1016.8 |
| 20260901090621 | 62 | 166 | 0.0 | 1.0 | 0.00 | 0.00 | 0.00 | 77 | 1016.9 |
| 20260901085621 | 62 | 166 | 1.0 | 2.0 | 0.00 | 0.00 | 0.00 | 76 | 1016.7 |
| 20260901084615 | 62 | 166 | 2.0 | 5.0 | 0.00 | 0.00 | 0.00 | 74 | 1016.7 |
| 20260901083626 | 63 | 99 | 2.0 | 6.0 | 0.00 | 0.00 | 0.00 | 73 | 1016.8 |
| 20260901082616 | 63 | 80 | 1.0 | 4.0 | 0.00 | 0.00 | 0.00 | 71 | 1016.8 |
| 20260901081625 | 62 | 80 | 3.0 | 4.0 | 0.00 | 0.00 | 0.00 | 71 | 1016.8 |
| 20260901080640 | 62 | 80 | 2.0 | 4.0 | 0.00 | 0.00 | 0.00 | 73 | 1016.9 |
| 20260901075620 | 62 | 80 | 3.0 | 3.0 | 0.00 | 0.00 | 0.00 | 73 | 1016.7 |
| 20260901074612 | 62 | 80 | 2.0 | 3.0 | 0.00 | 0.00 | 0.00 | 73 | 1016.7 |
| 20260901073623 | 63 | 80 | 2.0 | 3.0 | 0.00 | 0.00 | 0.00 | 72 | 1016.7 |
| 20260901072617 | 63 | 80 | 2.0 | 4.0 | 0.00 | 0.00 | 0.00 | 72 | 1016.7 |
| 20260901071626 | 63 | 80 | 2.0 | 6.0 | 0.00 | 0.00 | 0.00 | 71 | 1016.7 |
| 20260901070614 | 63 | 107 | 3.0 | 7.0 | 0.00 | 0.00 | 0.00 | 71 | 1016.7 |
| 20260901065614 | 63 | 91 | 3.0 | 7.0 | 0.00 | 0.00 | 0.00 | 72 | 1017.0 |
| 20260901064629 | 63 | 95 | 4.0 | 7.0 | 0.00 | 0.00 | 0.00 | 73 | 1017.0 |
| 20260901063620 | 63 | 105 | 2.0 | 3.0 | 0.00 | 0.00 | 0.00 | 73 | 1017.2 |
| 20260901062629 | 62 | 105 | 1.0 | 6.0 | 0.00 | 0.00 | 0.00 | 74 | 1017.2 |
| 20260901061620 | 62 | 128 | 2.0 | 5.0 | 0.00 | 0.00 | 0.00 | 76 | 1017.2 |
| 20260901060622 | 62 | 138 | 1.0 | 3.0 | 0.00 | 0.00 | 0.00 | 77 | 1017.1 |
| 20260901055622 | 62 | 138 | 2.0 | 5.0 | 0.00 | 0.00 | 0.00 | 76 | 1017.0 |
| 20260901054613 | 62 | 138 | 3.0 | 4.0 | 0.00 | 0.00 | 0.00 | 75 | 1017.0 |
| 20260901053622 | 62 | 144 | 2.0 | 5.0 | 0.00 | 0.00 | 0.00 | 75 | 1017.0 |
| 20260901052638 | 63 | 242 | 0.0 | 2.0 | 0.00 | 0.00 | 0.00 | 74 | 1017.0 |
| 20260901051629 | 63 | 242 | 1.0 | 7.0 | 0.00 | 0.00 | 0.00 | 73 | 1016.9 |
| 20260901050640 | 63 | 259 | 3.0 | 7.0 | 0.00 | 0.00 | 0.00 | 72 | 1016.7 |
| 20260901045641 | 64 | 247 | 3.0 | 7.0 | 0.00 | 0.00 | 0.00 | 70 | 1016.7 |
| 20260901044630 | 64 | 236 | 3.0 | 7.0 | 0.00 | 0.00 | 0.00 | 67 | 1016.7 |
| 20260901043625 | 65 | 213 | 5.0 | 9.0 | 0.00 | 0.00 | 0.00 | 65 | 1016.8 |
| 20260901042636 | 65 | 242 | 3.0 | 8.0 | 0.00 | 0.00 | 0.00 | 62 | 1016.9 |
| 20260901041625 | 65 | 196 | 3.0 | 9.0 | 0.00 | 0.00 | 0.00 | 63 | 1016.8 |
| 20260901040616 | 66 | 188 | 6.0 | 11.0 | 0.00 | 0.00 | 0.00 | 61 | 1016.8 |
| 20260901035622 | 65 | 190 | 8.0 | 12.0 | 0.00 | 0.00 | 0.00 | 61 | 1016.8 |
| 20260901034653 | 65 | 180 | 9.0 | 14.0 | 0.00 | 0.00 | 0.00 | 63 | 1016.6 |
| 20260901033622 | 64 | 172 | 9.0 | 13.0 | 0.00 | 0.00 | 0.00 | 67 | 1016.7 |
| 20260901032633 | 62 | 209 | 6.0 | 9.0 | 0.00 | 0.00 | 0.00 | 74 | 1016.7 |
| 20260901031628 | 62 | 198 | 5.0 | 9.0 | 0.00 | 0.00 | 0.00 | 76 | 1016.8 |
| 20260901030618 | 62 | 228 | 6.0 | 11.0 | 0.00 | 0.00 | 0.00 | 75 | 1017.0 |
| 20260901025640 | 63 | 194 | 7.0 | 16.0 | 0.00 | 0.00 | 0.00 | 72 | 1016.9 |
| 20260901024630 | 64 | 228 | 7.0 | 17.0 | 0.00 | 0.00 | 0.00 | 68 | 1016.7 |
| 20260901023625 | 64 | 213 | 9.0 | 14.0 | 0.00 | 0.00 | 0.00 | 67 | 1016.5 |
| 20260901022615 | 65 | 212 | 11.0 | 19.0 | 0.00 | 0.00 | 0.00 | 64 | 1016.3 |
| 20260901021626 | 65 | 196 | 14.0 | 28.0 | 0.00 | 0.00 | 0.00 | 63 | 1016.0 |
| 20260901020617 | 66 | 204 | 17.0 | 32.0 | 0.00 | 0.00 | 0.00 | 60 | 1015.7 |
| 20260901015623 | 70 | 220 | 15.0 | 26.0 | 0.00 | 0.00 | 0.00 | 54 | 1015.4 |
| 20260901014652 | 72 | 185 | 14.0 | 25.0 | 0.00 | 0.00 | 0.00 | 46 | 1014.9 |
| 20260901013620 | 77 | 212 | 9.0 | 14.0 | 0.00 | 0.00 | 0.00 | 39 | 1014.8 |
| 20260901012629 | 78 | 135 | 0.0 | 3.0 | 0.00 | 0.00 | 0.00 | 33 | 1014.1 |
| 20260901011622 | 78 | 84 | 2.0 | 6.0 | 0.00 | 0.00 | 0.00 | 33 | 1014.1 |
| 20260901010612 | 79 | 83 | 5.0 | 8.0 | 0.00 | 0.00 | 0.00 | 33 | 1014.0 |
| 20260901005632 | 79 | 96 | 5.0 | 10.0 | 0.00 | 0.00 | 0.00 | 32 | 1014.0 |
| 20260901004622 | 80 | 116 | 4.0 | 7.0 | 0.00 | 0.00 | 0.00 | 34 | 1013.8 |
| 20260901003615 | 80 | 133 | 0.0 | 3.0 | 0.00 | 0.00 | 0.00 | 37 | 1013.9 |
| 20260901002626 | 80 | 248 | 2.0 | 3.0 | 0.00 | 0.00 | 0.00 | 37 | 1014.0 |
| 20260901001616 | 80 | 248 | 1.0 | 2.0 | 0.00 | 0.00 | 0.00 | 39 | 1014.1 |
| 20260901000627 | 81 | 248 | 1.0 | 3.0 | 0.00 | 0.00 | 0.00 | 38 | 1014.2 |
| 20260831235626 | 81 | 248 | 3.0 | 4.0 | 0.00 | 0.00 | 0.00 | 36 | 1014.1 |
| 20260831234619 | 81 | 248 | 2.0 | 3.0 | 0.00 | 0.00 | 0.00 | 36 | 1014.1 |
| 20260831233629 | 81 | 248 | 2.0 | 3.0 | 0.00 | 0.00 | 0.00 | 36 | 1014.1 |
| 20260831232619 | 81 | 248 | 2.0 | 6.0 | 0.00 | 0.00 | 0.00 | 35 | 1014.1 |
| 20260831231613 | 82 | 248 | 1.0 | 4.0 | 0.00 | 0.00 | 0.00 | 35 | 1014.0 |
| 20260831230623 | 82 | 296 | 1.0 | 4.0 | 0.00 | 0.00 | 0.00 | 34 | 1014.0 |
| 20260831225642 | 82 | 298 | 2.0 | 4.0 | 0.00 | 0.00 | 0.00 | 34 | 1013.8 |
| 20260831224630 | 82 | 298 | 1.0 | 4.0 | 0.00 | 0.00 | 0.00 | 33 | 1013.8 |
| 20260831223625 | 82 | 302 | 2.0 | 8.0 | 0.00 | 0.00 | 0.00 | 33 | 1013.8 |
| 20260831222614 | 82 | 319 | 2.0 | 4.0 | 0.00 | 0.00 | 0.00 | 32 | 1013.9 |
| 20260831221622 | 82 | 310 | 3.0 | 5.0 | 0.00 | 0.00 | 0.00 | 31 | 1014.0 |
| 20260831220613 | 82 | 290 | 4.0 | 5.0 | 0.00 | 0.00 | 0.00 | 33 | 1014.0 |
| 20260831215617 | 82 | 309 | 2.0 | 8.0 | 0.00 | 0.00 | 0.00 | 35 | 1014.0 |
| 20260831214626 | 82 | 215 | 2.0 | 5.0 | 0.00 | 0.00 | 0.00 | 34 | 1014.1 |
| 20260831213615 | 82 | 236 | 2.0 | 7.0 | 0.00 | 0.00 | 0.00 | 31 | 1014.4 |
| 20260831212624 | 82 | 325 | 2.0 | 6.0 | 0.00 | 0.00 | 0.00 | 32 | 1014.6 |
| 20260831211617 | 82 | 217 | 3.0 | 6.0 | 0.00 | 0.00 | 0.00 | 32 | 1014.7 |
| 20260831210626 | 82 | 225 | 4.0 | 6.0 | 0.00 | 0.00 | 0.00 | 30 | 1014.8 |
| 20260831205626 | 83 | 288 | 2.0 | 5.0 | 0.00 | 0.00 | 0.00 | 30 | 1014.9 |
| 20260831204636 | 83 | 279 | 3.0 | 6.0 | 0.00 | 0.00 | 0.00 | 30 | 1015.0 |
| 20260831203625 | 81 | 284 | 3.0 | 7.0 | 0.00 | 0.00 | 0.00 | 29 | 1015.3 |
| 20260831202620 | 80 | 324 | 3.0 | 5.0 | 0.00 | 0.00 | 0.00 | 30 | 1015.2 |
| 20260831201629 | 79 | 256 | 2.0 | 4.0 | 0.00 | 0.00 | 0.00 | 33 | 1015.5 |
| 20260831200621 | 79 | 296 | 3.0 | 5.0 | 0.00 | 0.00 | 0.00 | 33 | 1015.6 |
| 20260831195620 | 79 | 244 | 2.0 | 6.0 | 0.00 | 0.00 | 0.00 | 33 | 1015.8 |
| 20260831194613 | 79 | 326 | 3.0 | 5.0 | 0.00 | 0.00 | 0.00 | 31 | 1015.8 |
| 20260831193623 | 79 | 323 | 3.0 | 8.0 | 0.00 | 0.00 | 0.00 | 30 | 1016.0 |
| 20260831192614 | 79 | 336 | 3.0 | 6.0 | 0.00 | 0.00 | 0.00 | 31 | 1016.2 |
| 20260831191630 | 78 | 326 | 3.0 | 6.0 | 0.00 | 0.00 | 0.00 | 30 | 1016.4 |
| 20260831190620 | 77 | 293 | 3.0 | 7.0 | 0.00 | 0.00 | 0.00 | 31 | 1016.5 |
| 20260831185621 | 77 | 275 | 2.0 | 5.0 | 0.00 | 0.00 | 0.00 | 33 | 1016.5 |
| 20260831184630 | 76 | 286 | 3.0 | 6.0 | 0.00 | 0.00 | 0.00 | 31 | 1016.6 |
| 20260831183624 | 75 | 331 | 3.0 | 5.0 | 0.00 | 0.00 | 0.00 | 32 | 1016.8 |
| 20260831182616 | 74 | 254 | 0.0 | 4.0 | 0.00 | 0.00 | 0.00 | 34 | 1017.0 |
| 20260831181623 | 73 | 245 | 3.0 | 7.0 | 0.00 | 0.00 | 0.00 | 34 | 1017.2 |
| 20260831180639 | 72 | 292 | 2.0 | 6.0 | 0.00 | 0.00 | 0.00 | 35 | 1017.2 |
| 20260831175619 | 71 | 298 | 4.0 | 7.0 | 0.00 | 0.00 | 0.00 | 35 | 1017.3 |
| 20260831174611 | 70 | 328 | 2.0 | 6.0 | 0.00 | 0.00 | 0.00 | 37 | 1017.4 |
| 20260831173621 | 70 | 5 | 3.0 | 5.0 | 0.00 | 0.00 | 0.00 | 38 | 1017.4 |
| 20260831172631 | 69 | 298 | 3.0 | 5.0 | 0.00 | 0.00 | 0.00 | 40 | 1017.7 |
| 20260831171641 | 69 | 10 | 2.0 | 4.0 | 0.00 | 0.00 | 0.00 | 41 | 1017.7 |
| 20260831170613 | 67 | 302 | 1.0 | 5.0 | 0.00 | 0.00 | 0.00 | 43 | 1017.8 |
| 20260831165615 | 66 | 280 | 2.0 | 4.0 | 0.00 | 0.00 | 0.00 | 42 | 1017.9 |
| 20260831164624 | 65 | 298 | 2.0 | 4.0 | 0.00 | 0.00 | 0.00 | 43 | 1017.8 |
| 20260831163613 | 64 | 297 | 2.0 | 4.0 | 0.00 | 0.00 | 0.00 | 46 | 1017.8 |
| 20260831162628 | 63 | 306 | 2.0 | 6.0 | 0.00 | 0.00 | 0.00 | 48 | 1017.9 |
| 20260831161639 | 63 | 319 | 3.0 | 6.0 | 0.00 | 0.00 | 0.00 | 47 | 1018.0 |
| 20260831160628 | 62 | 323 | 2.0 | 4.0 | 0.00 | 0.00 | 0.00 | 48 | 1018.1 |
| 20260831155649 | 61 | 322 | 1.0 | 4.0 | 0.00 | 0.00 | 0.00 | 50 | 1018.2 |
| 20260831154623 | 60 | 243 | 1.0 | 3.0 | 0.00 | 0.00 | 0.00 | 52 | 1018.4 |
| 20260831153634 | 59 | 241 | 1.0 | 3.0 | 0.00 | 0.00 | 0.00 | 55 | 1018.3 |
| 20260831152624 | 57 | 207 | 0.0 | 4.0 | 0.00 | 0.00 | 0.00 | 55 | 1018.3 |
| 20260831151634 | 56 | 207 | 2.0 | 4.0 | 0.00 | 0.00 | 0.00 | 57 | 1018.4 |
| 20260831150621 | 55 | 207 | 3.0 | 4.0 | 0.00 | 0.00 | 0.00 | 67 | 1018.5 |
| 20260831145624 | 54 | 182 | 2.0 | 5.0 | 0.00 | 0.00 | 0.00 | 69 | 1018.5 |
| 20260831144653 | 53 | 92 | 2.0 | 2.0 | 0.00 | 0.00 | 0.00 | 69 | 1018.4 |
| 20260831143642 | 53 | 74 | 1.0 | 2.0 | 0.00 | 0.00 | 0.00 | 70 | 1018.3 |
| 20260831142651 | 52 | 69 | 0.0 | 2.0 | 0.00 | 0.00 | 0.00 | 72 | 1018.3 |
| 20260831141642 | 50 | 69 | 0.0 | 2.0 | 0.00 | 0.00 | 0.00 | 75 | 1018.3 |
| 20260831140616 | 49 | 69 | 1.0 | 2.0 | 0.00 | 0.00 | 0.00 | 78 | 1018.2 |
| 20260831135616 | 47 | 69 | 0.0 | 0.0 | 0.00 | 0.00 | 0.00 | 78 | 1018.2 |
| 20260831134627 | 47 | 69 | 0.0 | 2.0 | 0.00 | 0.00 | 0.00 | 78 | 1018.0 |
| 20260831133618 | 47 | 69 | 1.0 | 2.0 | 0.00 | 0.00 | 0.00 | 77 | 1018.1 |
| 20260831132630 | 48 | 69 | 2.0 | 2.0 | 0.00 | 0.00 | 0.00 | 75 | 1018.1 |
| 20260831131640 | 47 | 69 | 0.0 | 2.0 | 0.00 | 0.00 | 0.00 | 77 | 1018.1 |
| 20260831130628 | 47 | 69 | 0.0 | 0.0 | 0.00 | 0.00 | 0.00 | 78 | 1018.1 |
| 20260831125627 | 47 | 69 | 0.0 | 0.0 | 0.00 | 0.00 | 0.00 | 76 | 1018.0 |
| 20260831124619 | 47 | 69 | 0.0 | 1.0 | 0.00 | 0.00 | 0.00 | 75 | 1018.0 |
| 20260831123626 | 48 | 69 | 0.0 | 3.0 | 0.00 | 0.00 | 0.00 | 75 | 1017.8 |
| 20260831122615 | 48 | 69 | 2.0 | 3.0 | 0.00 | 0.00 | 0.00 | 76 | 1017.7 |
| 20260831121628 | 48 | 69 | 0.0 | 0.0 | 0.00 | 0.00 | 0.00 | 76 | 1017.8 |
| 20260831120624 | 48 | 69 | 0.0 | 0.0 | 0.00 | 0.00 | 0.00 | 76 | 1017.9 |
| 20260831115625 | 48 | 69 | 0.0 | 0.0 | 0.00 | 0.00 | 0.00 | 75 | 1017.9 |
| 20260831114617 | 48 | 69 | 0.0 | 2.0 | 0.00 | 0.00 | 0.00 | 76 | 1018.0 |
| 20260831113630 | 48 | 69 | 0.0 | 1.0 | 0.00 | 0.00 | 0.00 | 76 | 1018.0 |
| 20260831112624 | 48 | 69 | 1.0 | 2.0 | 0.00 | 0.00 | 0.00 | 76 | 1018.0 |
| 20260831111615 | 48 | 69 | 1.0 | 2.0 | 0.00 | 0.00 | 0.00 | 75 | 1017.9 |
| 20260831110627 | 48 | 69 | 0.0 | 2.0 | 0.00 | 0.00 | 0.00 | 73 | 1017.9 |
| 20260831105628 | 49 | 69 | 0.0 | 2.0 | 0.00 | 0.00 | 0.00 | 72 | 1017.8 |
| 20260831104623 | 49 | 69 | 0.0 | 2.0 | 0.00 | 0.00 | 0.00 | 71 | 1017.7 |